This demonstration page uses our WeatherBlox Daily Observations layout. Learn more.

Left ArrowRight Arrow

39.12711, -84.51439

Hourly Observations for May 27, 2018

Temp ( °F °C ) Dew Point ( °F °C ) Humidity (%) Winds ( mph kmh ) Pressure ( in mb ) Visibility ( mi km ) Precip ( " mm )
12:01 am 00:01 Mostly Cloudy with Nearby Thunderstorms 71 21.7 69 20.6 94 94 N 6 9 29.88 1012 10 16 0.00 0.00
12:49 am 00:49 Cloudy 72 22 68 20 88 88 NW 7 11 29.91 1013 10 16 0.00 0.00
12:53 am 00:53 Cloudy with Light Rain 72 22.2 66 18.9 82 82 N 7 11 29.89 1012 10 16 0.00 0.03
1:07 am 01:07 Cloudy with Nearby Thunderstorms 71 21.7 68 20 90 90 ESE 6 9 29.88 1012 10 16 0.00 0.03
1:36 am 01:36 Cloudy with Rain 70 21.1 68 20 93 93 SSW 8 13 29.88 1012 5 8 0.03 0.76
1:42 am 01:42 Cloudy with Heavy Rain 69 20.6 67 19.4 93 93 SW 5 7 29.88 1012 2 3 0.10 2.54
1:53 am 01:53 Mostly Cloudy with Nearby Thunderstorms 69 20.6 68 20 96 96 S 7 11 29.86 1011 5 8 0.13 3.30
2:14 am 02:14 Mostly Clear 69 20.6 68 20 96 96 Calm 29.88 1012 10 16 0.00 0.03
2:53 am 02:53 Mostly Clear 69 20.6 69 20.6 100 100 W 6 9 29.85 1011 10 16 0.00 0.03
3:53 am 03:53 Clear 69 20.6 68 20 96 96 Calm 29.85 1011 9 14 0.00 0.00
4:41 am 04:41 Clear with Mist and Fog 67 19.4 67 19.4 100 100 Calm 29.88 1012 2 3 0.00 0.00
4:49 am 04:49 Clear with Mist and Fog 66 19 66 19 100 100 Calm 29.88 1012 3 5 0.00 0.00
4:53 am 04:53 Clear with Mist and Fog 67 19.4 67 19.4 100 100 Calm 29.86 1011 3 5 0.00 0.00
5:37 am 05:37 Clear with Mist and Fog 66 18.9 66 18.9 100 100 Calm 29.88 1012 2 3 0.00 0.00
5:48 am 05:48 Clear with Fog 66 19 66 19 100 100 Calm 29.88 1012 1 1 0.00 0.00
5:53 am 05:53 Clear with Fog 66 18.9 66 18.9 100 100 Calm 29.87 1012 1 1 0.00 0.00
6:18 am 06:18 Sunny with Mist and Fog 67 19.4 67 19.4 100 100 Calm 29.88 1012 1 2 0.00 0.00
6:25 am 06:25 Sunny with Fog 66 18.9 66 18.9 100 100 S 3 6 29.88 1012 1 1 0.00 0.00
6:38 am 06:38 Sunny with Mist and Fog 66 18.9 66 18.9 100 100 Calm 29.91 1013 1 2 0.00 0.00
6:53 am 06:53 Sunny with Patchy Fog 66 18.9 66 18.9 100 100 Calm 29.89 1012 5 8 0.00 0.00
7:53 am 07:53 Cloudy with Mist and Fog 69 20.6 69 20.6 100 100 Calm 29.92 1013 5 8 0.00 0.00
8:53 am 08:53 Sunny 72 22.2 70 21.1 94 94 S 5 7 29.93 1014 8 13 0.00 0.00
9:53 am 09:53 Sunny 74 23.3 70 21.1 88 88 SSW 6 9 29.93 1014 10 16 0.00 0.00
10:53 am 10:53 Sunny 78 25.6 71 21.7 79 79 SSE 3 6 29.93 1013 10 16 0.00 0.00
11:53 am 11:53 Sunny 81 27.2 73 22.8 77 77 SE 3 6 29.92 1013 10 16 0.00 0.00
12:53 pm 12:53 Sunny 83 28.3 73 22.8 72 72 SSW 5 7 29.91 1013 10 16 0.00 0.00
1:53 pm 13:53 Sunny 86 30 73 22.8 65 65 VRB 3 6 29.90 1013 10 16 0.00 0.00
2:53 pm 14:53 Mostly Cloudy 87 30.6 73 22.8 63 63 VRB 3 6 29.88 1012 10 16 0.00 0.00
3:53 pm 15:53 Partly Cloudy 88 31.1 71 21.7 57 57 SSW 5 7 29.88 1012 10 16 0.00 0.00
4:53 pm 16:53 Mostly Sunny 86 30 72 22.2 63 63 SW 5 7 29.87 1012 10 16 0.00 0.00
5:53 pm 17:53 Mostly Cloudy 84 28.9 72 22.2 67 67 SSW 6 9 29.88 1012 10 16 0.00 0.00
6:53 pm 18:53 Mostly Sunny 83 28.3 76 24.4 79 79 Calm 29.88 1012 10 16 0.00 0.00
7:53 pm 19:53 Mostly Sunny 80 26.7 76 24.4 87 87 Calm 29.88 1012 10 16 0.00 0.00
8:53 pm 20:53 Sunny 77 25 74 23.3 90 90 SSE 6 9 29.90 1013 10 16 0.00 0.00
9:53 pm 21:53 Clear 77 25 70 21.1 79 79 Calm 29.93 1014 10 16 0.00 0.00
10:53 pm 22:53 Clear 74 23.3 69 20.6 85 85 SSW 5 7 29.94 1014 10 16 0.00 0.00
11:53 pm 23:53 Clear 71 21.7 70 21.1 96 96 Calm 29.94 1014 10 16 0.00 0.00

Powered by AerisWeather